Regional Weather Roundup
Issued by NWS Charleston, SC

Current Version | Previous Version | Graphics & Text | Print | Product List | Glossary On
Versions: 1 2 3 4 5 6 7 8 9 10 11 12 13 14 15 16 17 18 19 20 21 22 23 24 25 26 27 28 29 30 31 32 33 34 35 36 37 38 39 40 41 42 43 44 45 46 47 48 49 50
000
ASUS42 KCHS 260927
RWRCHS

REGIONAL WEATHER ROUNDUP
NATIONAL WEATHER SERVICE CHARLESTON SC
500 AM EDT SUN MAR 26 2017

NOTE: "FAIR" INDICATES FEW OR NO CLOUDS BELOW 12,000 FEET WITH NO
SIGNIFICANT WEATHER AND/OR OBSTRUCTIONS TO VISIBILITY.

NOT ALL STATIONS ARE QUALITY CONTROLLED. USE DATA WITH CAUTION...
ESPECIALLY DEWPOINT OBSERVATIONS.

SCZ027-030-031-034>040-042>050-261000-
...SOUTHEAST SOUTH CAROLINA...

CITY           SKY/WX    TMP DP  RH WIND       PRES   REMARKS
N CHARLESTON   MOCLDY    57  54  89 CALM      30.17S
WATERFRONT PRK   N/A     62  59  90 VRB3      30.16F
JOHNS ISLAND   FAIR      57  55  94 CALM      30.17S
PINOPOLIS        N/A     57  57 100 CALM      30.08S
MONCKS CORNER  FAIR      52  50  93 CALM      30.17S FOG
SUMMERVILLE    FAIR      50  50 100 CALM      30.18S FOG
BEAUFORT MCAS  PTCLDY    55  54  96 CALM      30.16F
BEAUFORT ARPT  FAIR      55  55 100 CALM      30.16S
HILTON HEAD IS CLEAR     59  57  94 CALM      30.16F
WALTERBORO     SUNNY     50  50 100 CALM      30.17F
ALLENDALE      FAIR      54  54 100 CALM      30.14F

...SOUTHERN MIDLANDS AND PEE DEE...

CITY           SKY/WX    TMP DP  RH WIND       PRES   REMARKS
GEORGETOWN     FAIR      54  52  94 CALM      30.18F
KINGSTREE      FAIR      50  48  93 CALM      30.18S
ORANGEBURG     PTCLDY    54  53  97 CALM      30.17F
BARNWELL       FAIR      55  54  94 CALM      30.14F
AIKEN          FAIR      54  52  94 SE3       30.17F
MANNING        FAIR      52  50  93 CALM      30.17F
COLUMBIA       MOCLDY    58  53  84 CALM      30.15F
SUMTER         PTCLDY    54  52  92 CALM      30.15F
FLORENCE       CLOUDY    57  55  93 CALM      30.18F
MYRTLE BEACH   MOCLDY    62  57  83 S3        30.20S
N MYRTLE BEACH CLOUDY    62  58  86 CALM      30.19S

$$

GAZ063-065-086>088-099>101-113>116-118-119-134>141-150-261000-
...SOUTHEAST GEORGIA...

CITY           SKY/WX    TMP DP  RH WIND       PRES   REMARKS
SAVANNAH ARPT  PTCLDY    59  54  83 CALM      30.16F
HUNTER AAF     CLOUDY    58  57  97 CALM      30.13F
FORT STEWART   CLEAR     55  54  94 CALM      30.13F
STATESBORO     PTCLDY    56  32  40 CALM      30.14F
SYLVANIA       SUNNY    N/A N/A N/A CALM      30.15F
CLAXTON        FAIR     N/A N/A N/A CALM      30.14F

...CSRA...CENTRAL AND FAR SOUTHEAST GEORGIA...

CITY           SKY/WX    TMP DP  RH WIND       PRES   REMARKS
THOMSON        CLOUDY    60  54  82 SW6       30.17F
AUGUSTA-BUSH   PTCLDY    57  54  89 SE5       30.13F
AUGUSTA-DANIEL CLOUDY    59  53  80 SE5       30.14F
SWAINSBORO     FAIR      61  57  88 SE6       30.14R
VIDALIA        CLEAR     63  59  88 S3        30.13S
EASTMAN        FAIR      62  54  75 CALM      30.14F
HAZLEHURST     FAIR      63  62  99 S3        30.12S
ALMA           PTCLDY    59  58  96 SE3       30.12F
WAYCROSS       CLEAR     61  61 100 CALM      30.12F
JESUP          CLOUDY    57  54  88 CALM      30.14F
BAXLEY         FAIR      61  61 100 CALM      30.13S
BRUNSWICK      PTCLDY    59  59 100 CALM      30.15F
SAINT SIMONS   MOCLDY    62  59  90 CALM      30.14F

$$

SCZ027-028-034-036>038-045-046-048>050-GAZ119-141-261000-
...LAKE AND SUPPLEMENTAL COASTAL OBSERVATIONS...

STATION/POSITION TIME  TEMP    WIND        PRES    WAVE   SWELL
                       AIR SEA DIR/SP/G            HT/PER HT/PER/DIR
                 (UTC) (F)     (DEG/KT/KT) (MB)    (FT/S) (FT/S/D)
WINYAH BAY       0845   59     290/  1     1022.0S
LAKE MURRAY      0920   60     100/  3/  5 1020.3
ACE BASIN NERRS  0845   57        CALM     1021.0F
FORT PULASKI     0900   62 62   CALM  /  1 1021.4
SAPELO ISLAND    0900   61        CALM     1021.0

$$

ANZ835-935-AMZ111-154-330-350-352-354-370-450-454-472-261000-
...C-MAN AND BUOY OBSERVATIONS...

STATION/POSITION TIME  TEMP    WIND        PRES    WAVE   SWELL
                       AIR SEA DIR/SP/G            HT/PER HT/PER/DIR
                 (UTC) (F)     (DEG/KT/KT) (MB)    (FT/S) (FT/S/D)
BUOY 41004       0850   71 72  140/ 16/ 17 1021.1F   4/ 8   3/140/ 8
BUOY 41008       0850   64 62   70/  4/  4 1020.7R   4/ 8   3/110/ 8
FOLLY BEACH CMAN 0900   63     140/  5/  5 1021.9F
CAPERS NEARSHORE 0908   63     140/  8/ 10 1021.1F
FRIPP NEARSHORE  0908   62 60  120/  2/  6 1021.0S


STATION/POSITION TIME  TEMP    WIND        PRES    WAVE   SWELL
                       AIR SEA DIR/SP/G            HT/PER HT/PER/DIR
                 (UTC) (F)     (DEG/KT/KT) (MB)    (FT/S) (FT/S/D)
5E ST. MARYS GA  0900      64                N/A     4/ 8
FRYING PAN BUOY  0910   71 75  160/ 12/ 16 1022.5
BUOY 41025       0850   68 75  170/ 14/ 17 1023.7S   3/ 5   2/220/ 8
CAPE LOOKOUT NC  0900   66     200/  6/  7 1023.1R
BUOY 41002       0850   67 72  110/ 10/ 14 1023.5S   5/ 7   5/120/ 7
BUOY 41010       NOT AVBL
ST AUGUSTINE FL  0900   65 67   CALM  /  1 1021.1S


$$




USA.gov is the U.S. government's official web portal to all federal, state and local government web resources and services.